User: anonymous   Login
Location: Unspecified
(0.0000°N, 0.0000°E)
Time: 19:17:25
(UTC+00:00)
Language:

STARLINK-31260 - Orbit

View from above orbital plane
View from above orbital plane
View from above satellite
View from above satellite

Ground track
Ground track

The orbit is defined by the following mean orbital elements,

1 58881U          26145.66668980 +.00000000 +00000-0 -11049-3 0 00009
2 58881  53.1601 324.7096 0001567  80.6480 109.0668 15.33565728    09
Epoch (UTC): 25 May 2026 16:00:01
Eccentricity: 0.0001567
inclination: 53.1601°
perigee height: 464 km
apogee height: 466 km
right ascension of ascending node: 324.7096°
argument of perigee: 80.6480°
revolutions per day: 15.33565728
mean anomaly at epoch: 109.0668°

The dashed part of the orbit path shows where the satellite is in the earth's shadow,  

DLR